timestamp,wind_dir_avg,wind_spd_avg,wind_spd_max_dir,wind_spd_gust,battery_voltage,lat,long
2023-06-05 00:04:00+00:00,41.0,6.79,38.0,7.51,12.73,47.59359,-54.27349
2023-06-05 00:14:00+00:00,38.0,7.14,38.0,7.93,12.41,47.59359,-54.27349
2023-06-05 00:24:00+00:00,38.0,7.58,38.0,8.36,12.41,47.59359,-54.27349
2023-06-05 00:34:00+00:00,36.0,7.21,37.0,7.98,12.41,47.59359,-54.27349
2023-06-05 00:44:00+00:00,37.0,7.34,39.0,7.92,12.41,47.59359,-54.27349
2023-06-05 00:54:00+00:00,36.0,6.8,40.0,7.64,12.41,47.59359,-54.27349
2023-06-05 01:04:00+00:00,38.0,7.35,42.0,8.0,12.41,47.59359,-54.27349
2023-06-05 01:14:00+00:00,39.0,7.38,43.0,8.07,12.33,47.59359,-54.27349
2023-06-05 01:24:00+00:00,36.0,7.34,37.0,7.8,12.33,47.59359,-54.27349
2023-06-05 01:34:00+00:00,38.0,7.52,40.0,8.16,12.33,47.59359,-54.27349
2023-06-05 01:44:00+00:00,36.0,6.48,39.0,7.72,12.33,47.59359,-54.27349
2023-06-05 01:54:00+00:00,37.0,6.78,38.0,7.4,12.33,47.59359,-54.27349
2023-06-05 02:04:00+00:00,39.0,7.08,41.0,7.67,12.33,47.59359,-54.27349
2023-06-05 02:14:00+00:00,39.0,6.83,40.0,7.83,12.33,47.59359,-54.27349
2023-06-05 02:24:00+00:00,39.0,7.5,37.0,8.19,12.33,47.59359,-54.27349
2023-06-05 02:34:00+00:00,39.0,7.41,38.0,8.25,12.33,47.59359,-54.27349
2023-06-05 02:44:00+00:00,40.0,7.33,43.0,8.06,12.33,47.59359,-54.27349
2023-06-05 02:54:00+00:00,45.0,7.75,43.0,8.44,12.33,47.59359,-54.27349
2023-06-05 03:04:00+00:00,43.0,6.97,43.0,7.95,12.33,47.59359,-54.27349
2023-06-05 03:14:00+00:00,41.0,6.88,41.0,7.92,12.33,47.59359,-54.27349
2023-06-05 03:24:00+00:00,40.0,6.61,47.0,7.36,12.33,47.59359,-54.27349
2023-06-05 03:34:00+00:00,40.0,7.07,43.0,7.88,12.33,47.59359,-54.27349
2023-06-05 03:44:00+00:00,36.0,6.5,35.0,7.66,12.33,47.59359,-54.27349
2023-06-05 03:54:00+00:00,36.0,7.08,34.0,7.78,12.33,47.59359,-54.27349
2023-06-05 04:04:00+00:00,38.0,7.33,45.0,8.66,12.33,47.59359,-54.27349
2023-06-05 04:14:00+00:00,41.0,7.82,41.0,8.56,12.33,47.59359,-54.27349
2023-06-05 04:24:00+00:00,41.0,7.24,45.0,8.42,12.33,47.59359,-54.27349
2023-06-05 04:34:00+00:00,43.0,7.6,41.0,8.28,12.33,47.59359,-54.27349
2023-06-05 04:44:00+00:00,43.0,6.77,46.0,7.73,12.33,47.59359,-54.27349
2023-06-05 04:54:00+00:00,40.0,7.18,38.0,8.15,12.33,47.59359,-54.27349
2023-06-05 05:04:00+00:00,39.0,7.42,37.0,7.9,12.33,47.59359,-54.27349
2023-06-05 05:14:00+00:00,37.0,7.09,39.0,7.79,12.25,47.59359,-54.27349
2023-06-05 05:24:00+00:00,36.0,6.43,38.0,7.43,12.25,47.59359,-54.27349
2023-06-05 05:34:00+00:00,37.0,7.28,36.0,8.02,12.25,47.59359,-54.27349
2023-06-05 05:44:00+00:00,37.0,7.39,39.0,8.48,12.25,47.59359,-54.27349
2023-06-05 05:54:00+00:00,37.0,8.26,40.0,9.28,12.25,47.59359,-54.27349
2023-06-05 06:04:00+00:00,36.0,7.39,37.0,8.06,12.25,47.59359,-54.27349
2023-06-05 06:14:00+00:00,36.0,7.63,36.0,8.35,12.25,47.59359,-54.27349
2023-06-05 06:24:00+00:00,36.0,7.59,39.0,8.27,12.25,47.59359,-54.27349
2023-06-05 06:34:00+00:00,38.0,7.72,40.0,8.64,12.25,47.59359,-54.27349
2023-06-05 06:44:00+00:00,37.0,8.2,36.0,8.95,12.25,47.59359,-54.27349
2023-06-05 06:54:00+00:00,36.0,7.93,39.0,8.53,12.25,47.59359,-54.27349
2023-06-05 07:04:00+00:00,37.0,7.79,38.0,8.48,12.25,47.59359,-54.27349
2023-06-05 07:14:01+00:00,37.0,7.79,38.0,8.43,12.25,47.59359,-54.27349
2023-06-05 07:24:01+00:00,37.0,7.83,42.0,8.48,12.25,47.59359,-54.27349
2023-06-05 07:34:01+00:00,38.0,7.53,40.0,8.4,12.25,47.59359,-54.27349
2023-06-05 07:44:01+00:00,38.0,7.54,36.0,8.32,12.25,47.59359,-54.27349
2023-06-05 07:54:01+00:00,42.0,7.41,44.0,8.31,12.25,47.59359,-54.27349
2023-06-05 08:04:01+00:00,43.0,7.01,42.0,8.2,12.25,47.59359,-54.27349
2023-06-05 08:14:00+00:00,46.0,6.5,50.0,7.92,12.17,47.59359,-54.27349
2023-06-05 08:24:00+00:00,45.0,7.17,47.0,8.16,12.17,47.59359,-54.27349
2023-06-05 08:34:00+00:00,47.0,6.39,43.0,7.38,12.17,47.59359,-54.27349
2023-06-05 08:44:00+00:00,48.0,6.53,53.0,7.57,12.17,47.59359,-54.27349
2023-06-05 08:54:00+00:00,50.0,6.81,51.0,7.8,12.17,47.59359,-54.27349
2023-06-05 09:04:00+00:00,45.0,7.04,44.0,8.06,12.17,47.59359,-54.27349
2023-06-05 09:14:01+00:00,42.0,7.8,42.0,8.58,12.25,47.59359,-54.27349
2023-06-05 09:24:01+00:00,40.0,7.41,44.0,8.15,12.25,47.59359,-54.27349
2023-06-05 09:34:01+00:00,40.0,6.34,39.0,7.15,12.25,47.59359,-54.27349
2023-06-05 09:44:01+00:00,40.0,6.81,43.0,7.36,12.25,47.59359,-54.27349
2023-06-05 09:54:01+00:00,39.0,6.69,38.0,7.54,12.25,47.59359,-54.27349
2023-06-05 10:04:01+00:00,41.0,6.28,45.0,7.03,12.25,47.59359,-54.27349
2023-06-05 10:14:00+00:00,38.0,6.54,36.0,7.18,12.73,47.59359,-54.27349
2023-06-05 10:24:00+00:00,42.0,6.43,41.0,7.32,12.73,47.59359,-54.27349
2023-06-05 10:34:00+00:00,35.0,6.45,38.0,7.1,12.73,47.59359,-54.27349
2023-06-05 10:44:00+00:00,34.0,7.14,36.0,7.89,12.73,47.59359,-54.27349
2023-06-05 10:54:00+00:00,29.0,6.1,31.0,6.83,12.73,47.59359,-54.27349
2023-06-05 11:04:00+00:00,30.0,6.55,34.0,7.22,12.73,47.59359,-54.27349
2023-06-05 11:14:00+00:00,38.0,6.08,38.0,6.86,13.29,47.59359,-54.27349
2023-06-05 11:24:00+00:00,39.0,6.48,41.0,7.03,13.29,47.59359,-54.27349
2023-06-05 11:34:00+00:00,37.0,6.59,42.0,7.24,13.29,47.59359,-54.27349
2023-06-05 11:44:00+00:00,37.0,5.84,36.0,6.67,13.29,47.59359,-54.27349
2023-06-05 11:54:00+00:00,41.0,6.27,42.0,7.45,13.29,47.59359,-54.27349
2023-06-05 12:04:00+00:00,43.0,6.07,41.0,6.73,13.29,47.59359,-54.27349
2023-06-05 12:14:00+00:00,43.0,6.02,43.0,6.88,13.6,47.59359,-54.27349
2023-06-05 12:24:00+00:00,46.0,5.85,44.0,6.35,13.6,47.59359,-54.27349
2023-06-05 12:34:00+00:00,45.0,5.5,43.0,6.19,13.6,47.59359,-54.27349
2023-06-05 12:44:00+00:00,43.0,6.18,41.0,6.55,13.6,47.59359,-54.27349
2023-06-05 12:54:00+00:00,43.0,5.71,44.0,6.2,13.6,47.59359,-54.27349
2023-06-05 13:04:00+00:00,42.0,5.37,48.0,5.88,13.6,47.59359,-54.27349
2023-06-05 13:14:01+00:00,40.0,5.04,44.0,5.55,13.68,47.59359,-54.27349
2023-06-05 13:24:01+00:00,38.0,5.26,39.0,5.66,13.68,47.59359,-54.27349
2023-06-05 13:34:01+00:00,33.0,4.82,34.0,5.18,13.68,47.59359,-54.27349
2023-06-05 13:44:01+00:00,35.0,4.86,33.0,5.14,13.68,47.59359,-54.27349
2023-06-05 13:54:01+00:00,37.0,5.22,39.0,5.52,13.68,47.59359,-54.27349
2023-06-05 14:04:01+00:00,35.0,4.71,36.0,5.04,13.68,47.59359,-54.27349
2023-06-05 14:14:00+00:00,31.0,3.84,33.0,4.29,13.6,47.59359,-54.27349
2023-06-05 14:24:00+00:00,31.0,3.74,36.0,4.29,13.6,47.59359,-54.27349
2023-06-05 14:34:00+00:00,29.0,3.33,32.0,3.77,13.6,47.59359,-54.27349
2023-06-05 14:44:00+00:00,27.0,3.15,38.0,3.5,13.6,47.59359,-54.27349
2023-06-05 14:54:00+00:00,23.0,2.44,29.0,2.97,13.6,47.59359,-54.27349
2023-06-05 15:04:00+00:00,40.0,3.72,44.0,4.28,13.6,47.59359,-54.27349
2023-06-05 15:14:00+00:00,47.0,4.72,48.0,5.33,13.84,47.59359,-54.27349
2023-06-05 15:24:00+00:00,39.0,5.13,39.0,5.45,13.84,47.59359,-54.27349
2023-06-05 15:34:00+00:00,39.0,5.48,41.0,5.94,13.84,47.59359,-54.27349
2023-06-05 15:44:00+00:00,45.0,5.11,46.0,5.59,13.84,47.59359,-54.27349
2023-06-05 15:54:00+00:00,50.0,5.15,53.0,5.75,13.84,47.59359,-54.27349
2023-06-05 16:04:00+00:00,52.0,4.82,53.0,5.46,13.84,47.59359,-54.27349
2023-06-05 16:14:00+00:00,57.0,5.16,59.0,5.55,14.4,47.59359,-54.27349
2023-06-05 16:24:00+00:00,50.0,5.84,51.0,6.52,14.4,47.59359,-54.27349
2023-06-05 16:34:00+00:00,37.0,6.17,38.0,6.74,14.4,47.59359,-54.27349
2023-06-05 16:44:00+00:00,33.0,4.69,39.0,5.71,14.4,47.59359,-54.27349
2023-06-05 16:54:00+00:00,35.0,6.31,35.0,7.05,14.4,47.59359,-54.27349
2023-06-05 17:04:00+00:00,33.0,6.74,34.0,6.96,14.4,47.59359,-54.27349
2023-06-05 17:14:00+00:00,25.0,5.94,30.0,6.34,14.4,47.59359,-54.27349
2023-06-05 17:24:00+00:00,22.0,6.09,24.0,6.66,14.4,47.59359,-54.27349
2023-06-05 17:34:00+00:00,34.0,6.61,36.0,7.34,14.4,47.59359,-54.27349
2023-06-05 17:44:00+00:00,32.0,5.45,32.0,6.28,14.4,47.59359,-54.27349
2023-06-05 17:54:00+00:00,25.0,3.76,39.0,4.52,14.4,47.59359,-54.27349
2023-06-05 18:04:00+00:00,50.0,5.54,50.0,6.09,14.4,47.59359,-54.27349
2023-06-05 18:14:00+00:00,43.0,6.31,44.0,6.76,13.76,47.59359,-54.27349
2023-06-05 18:24:00+00:00,34.0,4.75,35.0,5.47,13.76,47.59359,-54.27349
2023-06-05 18:34:00+00:00,20.0,4.19,33.0,5.26,13.76,47.59359,-54.27349
2023-06-05 18:44:00+00:00,61.0,5.19,62.0,6.32,13.76,47.59359,-54.27349
2023-06-05 18:54:00+00:00,35.0,4.21,40.0,4.79,13.76,47.59359,-54.27349
2023-06-05 19:04:00+00:00,38.0,3.76,41.0,3.96,13.76,47.59359,-54.27349
2023-06-05 19:14:00+00:00,38.0,4.34,37.0,4.77,13.6,47.59359,-54.27349
2023-06-05 19:24:00+00:00,40.0,4.61,42.0,4.81,13.6,47.59359,-54.27349
2023-06-05 19:34:00+00:00,35.0,4.81,46.0,5.65,13.6,47.59359,-54.27349
2023-06-05 19:44:00+00:00,44.0,6.37,43.0,6.67,13.6,47.59359,-54.27349
2023-06-05 19:54:00+00:00,54.0,6.32,54.0,6.82,13.6,47.59359,-54.27349
2023-06-05 20:04:00+00:00,49.0,4.4,51.0,5.01,13.6,47.59359,-54.27349
2023-06-05 20:14:00+00:00,60.0,5.21,58.0,6.15,13.76,47.59359,-54.27349
2023-06-05 20:24:00+00:00,60.0,6.6,61.0,7.51,13.76,47.59359,-54.27349
2023-06-05 20:34:00+00:00,65.0,8.07,65.0,8.76,13.76,47.59359,-54.27349
2023-06-05 20:44:00+00:00,66.0,7.46,70.0,8.27,13.76,47.59359,-54.27349
2023-06-05 20:54:00+00:00,64.0,7.44,67.0,8.26,13.76,47.59359,-54.27349
2023-06-05 21:04:00+00:00,57.0,7.38,56.0,7.84,13.76,47.59359,-54.27349
2023-06-05 21:14:00+00:00,53.0,5.56,56.0,6.21,13.6,47.59359,-54.27349
2023-06-05 21:24:00+00:00,56.0,5.26,57.0,5.85,13.6,47.59359,-54.27349
2023-06-05 21:34:00+00:00,64.0,4.62,61.0,5.71,13.6,47.59359,-54.27349
2023-06-05 21:44:00+00:00,73.0,6.45,72.0,7.69,13.6,47.59359,-54.27349
2023-06-05 21:54:00+00:00,71.0,7.37,70.0,8.53,13.6,47.59359,-54.27349
2023-06-05 22:04:00+00:00,69.0,7.28,69.0,7.72,13.6,47.59359,-54.27349
2023-06-05 22:14:00+00:00,69.0,7.14,69.0,7.92,13.44,47.59359,-54.27349
2023-06-05 22:24:00+00:00,69.0,6.77,73.0,7.46,13.44,47.59359,-54.27349
2023-06-05 22:34:00+00:00,68.0,6.91,70.0,7.82,13.44,47.59359,-54.27349
2023-06-05 22:44:00+00:00,64.0,6.23,64.0,7.36,13.44,47.59359,-54.27349
2023-06-05 22:54:00+00:00,68.0,6.63,71.0,7.53,13.44,47.59359,-54.27349
2023-06-05 23:04:00+00:00,67.0,6.4,70.0,7.0,13.44,47.59359,-54.27349
2023-06-05 23:14:01+00:00,63.0,5.25,60.0,6.13,12.97,47.59359,-54.27349
2023-06-05 23:24:01+00:00,63.0,5.01,63.0,5.84,12.97,47.59359,-54.27349
2023-06-05 23:34:01+00:00,49.0,4.34,60.0,5.88,12.97,47.59359,-54.27349
2023-06-05 23:44:01+00:00,43.0,5.11,51.0,6.35,12.97,47.59359,-54.27349
2023-06-05 23:54:01+00:00,45.0,5.56,46.0,6.09,12.97,47.59359,-54.27349
